�������l�o���
Date,Time,MP-1(��Sv/h),MP-2(��Sv/h),MP-3(��Sv/h),MP-4(��Sv/h),MP-5(��Sv/h),MP-6(��Sv/h),MP-7(��Sv/h),MP-8(��Sv/h),����,����(m/s),���J
2016/10/27,00:00,1.160,1.995,1.344,2.222,1.564,0.616,1.089,1.001,�k�k��,6.6,��
2016/10/27,00:10,1.163,1.991,1.344,2.220,1.563,0.615,1.089,1.001,�k�k��,6.1,��
2016/10/27,00:20,1.158,1.994,1.346,2.220,1.563,0.616,1.089,1.000,�k�k��,6.9,��
2016/10/27,00:30,1.160,1.993,1.346,2.225,1.563,0.613,1.089,1.002,�k�k��,5.2,��
2016/10/27,00:40,1.159,1.992,1.345,2.221,1.563,0.616,1.089,1.002,�k�k��,4.2,��
2016/10/27,00:50,1.159,1.995,1.345,2.221,1.564,0.613,1.088,1.001,�k�k��,3.6,��
2016/10/27,01:00,1.158,1.993,1.344,2.224,1.564,0.615,1.089,1.001,�k�k��,2.8,��
2016/10/27,01:10,1.158,1.993,1.345,2.217,1.565,0.615,1.088,1.001,�k,3.3,��
2016/10/27,01:20,1.158,1.993,1.343,2.219,1.563,0.616,1.088,1.001,�k,4.5,��
2016/10/27,01:30,1.159,1.992,1.346,2.221,1.563,0.613,1.087,1.000,�k,5.8,��
2016/10/27,01:40,1.157,1.989,1.344,2.219,1.563,0.615,1.089,1.001,�k�k��,5.5,��
2016/10/27,01:50,1.159,1.993,1.343,2.223,1.563,0.614,1.088,1.001,�k,5.2,��
2016/10/27,02:00,1.158,1.989,1.344,2.222,1.562,0.615,1.087,1.002,�k,4.7,��
2016/10/27,02:10,1.157,1.991,1.343,2.220,1.560,0.614,1.089,1.000,�k�k��,4.6,��
2016/10/27,02:20,1.157,1.989,1.340,2.220,1.558,0.613,1.088,0.999,�k�k��,4.7,��
2016/10/27,02:30,1.157,1.992,1.339,2.221,1.561,0.613,1.087,0.999,�k�k��,3.3,��
2016/10/27,02:40,1.159,1.993,1.342,2.219,1.562,0.613,1.088,1.001,�k�k��,5.5,��
2016/10/27,02:50,1.156,1.988,1.342,2.221,1.560,0.614,1.087,1.000,�k�k��,6.3,��
2016/10/27,03:00,1.157,1.988,1.339,2.220,1.561,0.613,1.087,1.000,�k��,7.1,��
2016/10/27,03:10,1.158,1.989,1.339,2.219,1.559,0.612,1.087,1.000,�k��,7.5,��
2016/10/27,03:20,1.158,1.988,1.340,2.221,1.559,0.614,1.088,0.998,�k��,8.5,��
2016/10/27,03:30,1.156,1.990,1.343,2.221,1.558,0.613,1.088,0.998,�k��,6.4,��
2016/10/27,03:40,1.157,1.990,1.341,2.221,1.560,0.614,1.086,0.999,�k�k��,6.0,��
2016/10/27,03:50,1.156,1.990,1.341,2.218,1.559,0.614,1.089,1.000,�k��,5.6,��
2016/10/27,04:00,1.156,1.988,1.340,2.217,1.560,0.613,1.088,0.999,�k�k��,4.7,��
2016/10/27,04:10,1.155,1.989,1.337,2.221,1.563,0.613,1.088,0.999,�k��,4.4,��
2016/10/27,04:20,1.155,1.991,1.341,2.219,1.560,0.614,1.086,0.998,�k��,3.8,��
2016/10/27,04:30,1.156,1.988,1.339,2.219,1.558,0.613,1.088,0.999,�k��,4.2,��
2016/10/27,04:40,1.156,1.987,1.341,2.215,1.561,0.611,1.088,0.999,�k�k��,3.5,��
2016/10/27,04:50,1.154,1.986,1.338,2.216,1.560,0.614,1.088,0.998,�k��,5.5,��
2016/10/27,05:00,1.154,1.989,1.340,2.220,1.559,0.612,1.088,0.998,�k�k��,5.8,��
2016/10/27,05:10,1.153,1.987,1.340,2.216,1.559,0.611,1.088,0.998,�k�k��,5.8,��
2016/10/27,05:20,1.154,1.989,1.338,2.218,1.558,0.610,1.086,0.999,�k�k��,4.4,��
2016/10/27,05:30,1.156,1.990,1.340,2.218,1.559,0.612,1.088,1.000,�k��,6.7,��
2016/10/27,05:40,1.156,1.990,1.340,2.219,1.557,0.611,1.089,0.999,�k��,8.2,��
2016/10/27,05:50,1.155,1.989,1.341,2.220,1.561,0.613,1.088,0.999,�k��,9.7,��
2016/10/27,06:00,1.155,1.991,1.341,2.219,1.558,0.611,1.088,0.999,�k��,8.6,��
2016/10/27,06:10,1.156,1.986,1.341,2.222,1.559,0.610,1.088,0.998,�k��,7.5,��
2016/10/27,06:20,1.154,1.990,1.341,2.223,1.560,0.612,1.088,0.999,�k��,4.1,��
2016/10/27,06:30,1.154,1.987,1.337,2.217,1.558,0.613,1.087,0.999,�k�k��,6.6,��
2016/10/27,06:40,1.154,1.986,1.339,2.219,1.561,0.612,1.087,0.999,�k�k��,7.2,��
2016/10/27,06:50,1.153,1.991,1.338,2.221,1.559,0.611,1.086,0.999,�k�k��,6.4,��
2016/10/27,07:00,1.156,1.993,1.340,2.223,1.559,0.611,1.089,0.998,�k�k��,6.9,��
2016/10/27,07:10,1.156,1.988,1.334,2.221,1.556,0.611,1.088,0.998,�k�k��,7.8,��
2016/10/27,07:20,1.154,1.989,1.340,2.221,1.557,0.611,1.089,0.999,�k�k��,5.2,��
2016/10/27,07:30,1.157,1.987,1.336,2.218,1.559,0.612,1.087,0.998,�k�k��,8.0,��
2016/10/27,07:40,1.153,1.990,1.338,2.221,1.560,0.613,1.085,0.999,�k�k��,5.8,��
2016/10/27,07:50,1.153,1.991,1.308,2.221,1.559,0.612,1.087,1.000,�k��,7.1,��
2016/10/27,08:00,1.153,1.986,1.332,2.221,1.557,0.611,1.084,0.998,�k��,7.1,��
2016/10/27,08:10,1.156,1.986,1.336,2.222,1.557,0.611,1.085,0.996,�k��,6.9,��
2016/10/27,08:20,1.155,1.986,1.336,2.221,1.559,0.611,1.084,0.999,�k��,6.6,��
2016/10/27,08:30,1.151,1.994,1.332,2.221,1.560,0.612,1.085,0.999,�k��,6.4,��
2016/10/27,08:40,1.153,1.990,1.334,2.219,1.560,0.612,1.084,1.000,���k��,7.7,��
2016/10/27,08:50,1.154,1.989,1.337,2.225,1.563,0.612,1.085,1.000,���k��,7.7,��
2016/10/27,09:00,1.156,1.992,1.353,2.223,1.562,0.610,1.086,1.000,���k��,6.9,��
2016/10/27,09:10,1.154,1.992,1.358,2.222,1.560,0.615,1.086,0.999,���k��,7.2,��
2016/10/27,09:20,1.152,1.996,1.360,2.224,1.562,0.616,1.085,1.000,�k��,6.1,��
2016/10/27,09:30,1.151,1.992,1.357,2.225,1.560,0.614,1.085,1.001,�k��,6.3,��
2016/10/27,09:40,1.152,1.984,1.358,2.226,1.556,0.614,1.084,1.001,���k��,5.0,��
2016/10/27,09:50,1.151,1.985,1.359,2.226,1.557,0.612,1.085,1.001,�k��,4.7,��
2016/10/27,10:00,1.153,1.984,1.358,2.223,1.559,0.613,1.085,0.998,���k��,5.8,��
2016/10/27,10:10,1.143,1.982,1.352,2.228,1.562,0.613,1.087,0.998,�k��,5.2,��
2016/10/27,10:20,1.125,1.987,1.352,2.224,1.563,0.614,1.086,1.000,�k��,5.8,��
2016/10/27,10:30,1.127,1.983,1.352,2.227,1.562,0.614,1.085,0.999,�k��,7.1,��
2016/10/27,10:40,1.131,1.972,1.349,2.227,1.563,0.611,1.087,0.997,�k��,4.1,��
2016/10/27,10:50,1.129,1.979,1.352,2.224,1.564,0.612,1.086,0.999,���k��,4.4,��
2016/10/27,11:00,1.129,1.990,1.354,2.228,1.563,0.612,1.087,0.997,��,3.0,��
2016/10/27,11:10,1.133,1.991,1.354,2.227,1.562,0.612,1.086,1.000,�k�k��,4.1,��
2016/10/27,11:20,1.131,1.987,1.355,2.227,1.563,0.612,1.088,1.002,�k��,4.5,��
2016/10/27,11:30,1.128,1.994,1.353,2.226,1.561,0.611,1.086,0.999,�k��,4.2,��
2016/10/27,11:40,1.132,1.996,1.354,2.231,1.562,0.611,1.088,0.997,�k,2.9,��
2016/10/27,11:50,1.131,1.995,1.357,2.231,1.565,0.616,1.089,0.999,�k,3.1,��
2016/10/27,12:00,1.129,1.993,1.352,2.229,1.564,0.613,1.088,0.999,���k��,3.8,��
2016/10/27,12:10,1.150,1.993,1.348,2.232,1.565,0.613,1.088,0.997,�k��,3.0,��
2016/10/27,12:20,1.152,1.995,1.341,2.228,1.565,0.614,1.088,0.996,�k��,4.6,��
2016/10/27,12:30,1.152,1.991,1.347,2.228,1.563,0.613,1.087,0.995,�k��,3.8,��
2016/10/27,12:40,1.153,1.992,1.348,2.230,1.563,0.614,1.087,0.998,�k��,3.8,��
2016/10/27,12:50,1.143,1.991,1.341,2.229,1.565,0.616,1.087,0.997,�k��,2.4,��
2016/10/27,13:00,1.151,1.989,1.338,2.231,1.563,0.615,1.087,0.997,�k��,2.9,��
2016/10/27,13:10,1.152,1.989,1.337,2.230,1.566,0.614,1.086,0.998,�k��,2.3,��
2016/10/27,13:20,1.151,1.991,1.349,2.226,1.562,0.614,1.085,0.997,���k��,1.7,��
2016/10/27,13:30,1.151,1.989,1.355,2.230,1.560,0.612,1.086,0.998,���쐼,3.8,��
2016/10/27,13:40,1.152,1.986,1.354,2.229,1.565,0.614,1.086,0.996,��,5.2,��
2016/10/27,13:50,1.155,1.988,1.354,2.231,1.563,0.614,1.088,0.996,���k��,3.8,��
2016/10/27,14:00,1.153,1.990,1.353,2.231,1.563,0.613,1.089,0.997,���k��,4.4,��
2016/10/27,14:10,1.150,1.994,1.351,2.229,1.560,0.612,1.088,0.997,�k��,6.4,��
2016/10/27,14:20,1.151,1.993,1.354,2.227,1.562,0.613,1.088,0.996,���k��,5.6,��
2016/10/27,14:30,1.152,1.993,1.358,2.229,1.563,0.612,1.087,0.996,���k��,7.4,��
2016/10/27,14:40,1.156,1.992,1.357,2.228,1.565,0.613,1.085,0.996,��,6.0,��
2016/10/27,14:50,1.154,1.993,1.358,2.230,1.564,0.614,1.087,0.995,��,6.6,��
2016/10/27,15:00,1.154,1.992,1.359,2.229,1.568,0.612,1.085,0.996,��,6.1,��
2016/10/27,15:10,1.153,1.996,1.360,2.228,1.567,0.616,1.085,0.996,��,6.0,��
2016/10/27,15:20,1.155,1.995,1.360,2.231,1.567,0.614,1.085,0.998,���쐼,6.1,��
2016/10/27,15:30,1.155,1.996,1.357,2.231,1.562,0.614,1.085,0.998,���쐼,4.5,��
2016/10/27,15:40,1.154,1.997,1.356,2.228,1.561,0.614,1.087,0.999,��,4.2,��
2016/10/27,15:50,1.155,1.998,1.358,2.228,1.563,0.616,1.087,0.999,��,4.1,��
2016/10/27,16:00,1.155,1.998,1.357,2.228,1.565,0.614,1.085,0.999,��,5.5,��
2016/10/27,16:10,1.151,1.995,1.356,2.229,1.561,0.614,1.085,1.000,��,5.8,��
2016/10/27,16:20,1.153,1.995,1.356,2.230,1.563,0.613,1.088,1.000,��,5.8,��
2016/10/27,16:30,1.154,1.999,1.355,2.228,1.560,0.615,1.087,0.999,��,6.3,��
2016/10/27,16:40,1.154,1.995,1.356,2.227,1.563,0.613,1.087,1.000,��,5.5,��
2016/10/27,16:50,1.154,1.994,1.357,2.227,1.562,0.615,1.085,0.999,���k��,5.2,��
2016/10/27,17:00,1.153,1.997,1.360,2.226,1.562,0.614,1.088,0.999,���k��,6.3,��
2016/10/27,17:10,1.151,1.996,1.359,2.227,1.564,0.614,1.085,1.001,���k��,5.8,��
2016/10/27,17:20,1.150,1.995,1.357,2.226,1.563,0.613,1.087,0.997,���k��,5.5,��
2016/10/27,17:30,1.149,1.996,1.361,2.227,1.561,0.613,1.088,0.997,���k��,6.7,��
2016/10/27,17:40,1.151,1.997,1.357,2.227,1.563,0.614,1.086,0.995,���k��,5.2,��
2016/10/27,17:50,1.151,1.995,1.357,2.227,1.565,0.612,1.088,0.998,���k��,5.5,��
2016/10/27,18:00,1.148,1.995,1.355,2.224,1.564,0.612,1.084,0.997,���k��,5.8,��
2016/10/27,18:10,1.147,1.993,1.356,2.226,1.565,0.611,1.084,0.996,���k��,3.5,��
2016/10/27,18:20,1.150,1.992,1.358,2.227,1.562,0.612,1.085,0.997,���k��,2.6,��
2016/10/27,18:30,1.149,1.994,1.355,2.227,1.562,0.613,1.084,0.997,���k��,2.8,��
2016/10/27,18:40,1.149,1.996,1.356,2.225,1.562,0.611,1.086,0.996,���k��,2.7,��
2016/10/27,18:50,1.150,1.993,1.356,2.225,1.562,0.613,1.086,0.997,��,2.4,��
2016/10/27,19:00,1.148,1.992,1.354,2.224,1.560,0.612,1.085,0.997,���k��,2.7,��
2016/10/27,19:10,1.148,1.993,1.355,2.223,1.560,0.612,1.086,0.998,���k��,3.4,��
2016/10/27,19:20,1.148,1.992,1.354,2.223,1.563,0.612,1.083,0.996,�k��,4.4,��
2016/10/27,19:30,1.149,1.993,1.350,2.223,1.564,0.613,1.083,0.997,�k��,3.9,��
2016/10/27,19:40,1.149,1.992,1.354,2.221,1.564,0.612,1.085,0.998,�k��,3.9,��
2016/10/27,19:50,1.149,1.993,1.352,2.222,1.562,0.612,1.084,0.996,���k��,3.8,��
2016/10/27,20:00,1.148,1.993,1.355,2.224,1.558,0.612,1.084,0.996,�k��,3.6,��
2016/10/27,20:10,1.148,1.992,1.356,2.223,1.562,0.610,1.086,0.997,�k��,3.4,��
2016/10/27,20:20,1.148,1.994,1.354,2.219,1.560,0.613,1.084,0.997,�k��,3.8,��
2016/10/27,20:30,1.149,1.993,1.354,2.219,1.560,0.610,1.085,0.995,�k��,3.3,��
2016/10/27,20:40,1.146,1.990,1.356,2.219,1.562,0.609,1.083,0.997,�k��,2.5,��
2016/10/27,20:50,1.145,1.992,1.354,2.220,1.560,0.611,1.084,0.997,�k��,1.7,��
2016/10/27,21:00,1.148,1.990,1.354,2.221,1.559,0.610,1.085,0.995,�k��,1.6,��
2016/10/27,21:10,1.146,1.991,1.353,2.221,1.560,0.610,1.082,0.996,���k��,1.6,��
2016/10/27,21:20,1.148,1.992,1.351,2.221,1.560,0.611,1.084,0.993,�k��,1.3,��
2016/10/27,21:30,1.147,1.991,1.353,2.220,1.559,0.610,1.084,0.997,�k��,2.0,��
2016/10/27,21:40,1.147,1.991,1.352,2.224,1.560,0.610,1.084,0.997,���k��,1.2,��
2016/10/27,21:50,1.148,1.991,1.352,2.223,1.560,0.612,1.083,0.996,��,2.1,��
2016/10/27,22:00,1.145,1.989,1.352,2.221,1.559,0.609,1.082,0.997,��,4.4,��
2016/10/27,22:10,1.149,1.991,1.351,2.222,1.559,0.612,1.084,0.996,���k��,4.4,��
2016/10/27,22:20,1.149,1.992,1.352,2.220,1.559,0.610,1.083,0.997,�k��,4.2,��
2016/10/27,22:30,1.147,1.989,1.350,2.221,1.560,0.611,1.083,0.996,���k��,4.1,��
2016/10/27,22:40,1.147,1.989,1.352,2.222,1.556,0.610,1.082,0.997,���k��,4.7,��
2016/10/27,22:50,1.146,1.991,1.350,2.222,1.558,0.610,1.085,0.998,���k��,3.9,��
2016/10/27,23:00,1.145,1.990,1.351,2.223,1.557,0.610,1.085,0.997,���k��,3.2,��
2016/10/27,23:10,1.143,1.993,1.353,2.222,1.559,0.611,1.085,0.997,�k��,3.1,��
2016/10/27,23:20,1.149,1.990,1.352,2.223,1.558,0.612,1.084,0.996,���k��,3.3,��
2016/10/27,23:30,1.147,1.991,1.352,2.217,1.557,0.612,1.085,0.997,�k��,2.0,��
2016/10/27,23:40,1.150,1.989,1.351,2.222,1.557,0.609,1.084,0.997,�k��,2.3,��
2016/10/27,23:50,1.147,1.990,1.351,2.218,1.557,0.611,1.083,0.995,���k��,3.1,��
